User: anonymous   Login
Location: Drocourt
(49.0571°N, 1.7669°E)
Time: 17:19:36
(UTC+00:00)
Language:

Okean 1-7 Rocket - Orbit

View from above orbital plane
View from above orbital plane
View from above satellite
View from above satellite

Ground track
Ground track

The orbit data is extracted from the following two-line orbital elements,

1 23318U 94066B   24110.77442485  .00001264  00000-0  16441-3 0  9993
2 23318  82.5444  10.7920 0022722 338.0557  21.9680 14.79768706591692
Epoch (UTC): 19 April 2024 18:35:10
Eccentricity: 0.0022722
inclination: 82.5444°
perigee height: 614 km
apogee height: 646 km
right ascension of ascending node: 10.7920°
argument of perigee: 338.0557°
revolutions per day: 14.79768706
mean anomaly at epoch: 21.9680°
orbit number at epoch: 59169

The dashed part of the orbit path shows where the satellite is in the earth's shadow,  

DLR